Unser Platzwetter:
(um das Bild zu aktualisieren oder bei unvollständig geladenem Bild den Reload-Button des Browsers drücken)

 

 
[Quelle: ADDS]
METAR
ETNN 100420Z 30016KT 9999 FEW020 SCT030 BKN060 05/03 Q1019 BLU =
TAF
SR / SS: 07:24 / 15:27 UTC (Vettweiss-Soller 2018-12-10)
 

Hier gibt es ein Wetterdiagramm der letzten 7 Tage.

Hier geht es zu unserer Webcam.

Satelitenbild:

aktuelles Meteosat-Bild von www.wetterzentrale.de